This demonstration page uses our WeatherBlox Daily Observations layout. Learn more.

Left ArrowRight Arrow

Hourly Observations for June 9, 2018

Temp ( °F °C ) Dew Point ( °F °C ) Humidity (%) Winds ( mph kmh ) Pressure ( in mb ) Visibility ( mi km ) Precip ( " mm )
12:56 am 00:56 Clear 76 24.4 67 19.4 74 74 S 12 19 29.88 1012 10 16 0.00 0.00
1:56 am 01:56 Hazy 72 22.2 59 15 64 64 NNE 16 26 29.97 1015 5 8 0.00 0.00
2:00 am 02:00 Hazy 72 22 57 14 61 61 N 48 78 29.97 1015 3 4 0.00 0.00
2:02 am 02:02 Mostly Cloudy with Haze 72 22 55 13 57 57 N 39 63 29.97 1015 3 5 0.00 0.00
2:23 am 02:23 Cloudy with Nearby Thunderstorms 66 19 57 14 73 73 NNE 35 56 30.00 1016 10 16 0.00 0.00
2:56 am 02:56 Mostly Clear with Nearby Thunderstorms 62 16.7 58 14.4 86 86 NNE 21 33 29.97 1015 10 16 0.00 0.00
3:05 am 03:05 Clear 63 17 59 15 88 88 NE 21 33 29.94 1014 10 16 0.00 0.00
3:56 am 03:56 Clear 62 16.7 59 15 90 90 E 14 22 29.93 1013 10 16 0.00 0.00
4:56 am 04:56 Clear 62 16.7 59 15 90 90 SE 12 19 29.92 1013 10 16 0.00 0.00
5:56 am 05:56 Clear 63 17.2 59 15 87 87 SSE 9 15 29.96 1015 10 16 0.00 0.00
6:56 am 06:56 Sunny 64 17.8 60 15.6 87 87 S 14 22 29.91 1013 10 16 0.00 0.00
7:56 am 07:56 Sunny 70 21.1 60 15.6 71 71 S 18 30 29.88 1012 10 16 0.00 0.00
8:56 am 08:56 Sunny 73 22.8 60 15.6 64 64 S 21 33 29.87 1012 10 16 0.00 0.00
9:56 am 09:56 Sunny 79 26.1 64 17.8 60 60 S 24 39 29.88 1012 10 16 0.00 0.00
10:56 am 10:56 Sunny 81 27.2 66 18.9 61 61 SSW 17 28 29.87 1012 10 16 0.00 0.00
11:56 am 11:56 Sunny 84 28.9 67 19.4 57 57 SSW 13 20 29.87 1012 10 16 0.00 0.00
12:56 pm 12:56 Sunny 86 30 67 19.4 53 53 SSW 7 11 29.85 1011 10 16 0.00 0.00
1:56 pm 13:56 Sunny 88 31.1 68 20 52 52 S 8 13 29.83 1010 10 16 0.00 0.00
2:56 pm 14:56 Sunny 91 32.8 65 18.3 42 42 S 5 7 29.82 1010 10 16 0.00 0.00
3:56 pm 15:56 Sunny 92 33.3 65 18.3 41 41 ESE 10 17 29.80 1009 10 16 0.00 0.00
4:56 pm 16:56 Sunny 94 34.4 65 18.3 38 38 ESE 16 26 29.78 1009 10 16 0.00 0.00
5:56 pm 17:56 Sunny 94 34.4 61 16.1 33 33 ESE 15 24 29.78 1008 10 16 0.00 0.00
6:56 pm 18:56 Sunny 93 33.9 66 18.9 41 41 E 14 22 29.76 1008 10 16 0.00 0.00
7:56 pm 19:56 Sunny 88 31.1 69 20.6 54 54 E 17 28 29.75 1007 10 16 0.00 0.00
8:56 pm 20:56 Sunny 84 28.9 70 21.1 63 63 E 15 24 29.74 1007 10 16 0.00 0.00
9:56 pm 21:56 Clear 81 27.2 70 21.1 69 69 E 15 24 29.74 1007 10 16 0.00 0.00
10:38 pm 22:38 Clear with Nearby Thunderstorms 79 26 70 21 74 74 E 13 20 29.71 1006 10 16 0.00 0.00
10:40 pm 22:40 Clear with Nearby Thunderstorms 79 26 70 21 74 74 E 14 22 29.71 1006 10 16 0.00 0.00
10:56 pm 22:56 Clear with Nearby Thunderstorms 79 26.1 70 21.1 74 74 ESE 10 17 29.76 1008 10 16 0.00 0.00
11:20 pm 23:20 Clear with Thunderstorms 77 25 70 21 79 79 SE 9 15 29.74 1007 10 16 0.00 0.00
11:48 pm 23:48 Clear 77 25 70 21 79 79 ESE 7 11 29.71 1006 10 16 0.00 0.00
11:56 pm 23:56 Clear 77 25 69 20.6 77 77 E 9 15 29.74 1007 10 16 0.00 0.00

Powered by AerisWeather